カタログに戻る

COSMOS 2251 DEB

運用中VLEO
NORAD 34118·DEBRIS·🇷🇺 Russia

打ち上げ Jun 16, 1993 から Plesetsk Cosmodrome

Loading…

次のパス (今後24時間)

TLE

最新Source: Space-Track

元期: Sep 14, 2026, 21:11 UTC

1 34118U 93036KP  26257.88288852  .00029254  00000-0  19952-2 0  9999
2 34118  73.9487  45.1768 0051059 164.9447 354.1069 15.05027830933164

AllMySatでCOSMOS 2251 DEBをリアルタイム追跡

Download on the App Store